Regional Weather Roundup
Issued by NWS Grand Forks, ND

Home | Current Version | Previous Version | Graphics & Text | Print | Product List | Glossary On
Versions: 1 2 3 4 5 6 7 8 9 10 11 12 13 14 15 16 17 18 19 20 21 22 23 24 25 26 27 28 29 30 31 32 33 34 35 36 37 38 39 40 41 42 43 44 45 46 47 48 49 50
000
ASUS43 KFGF 062210
RWRFGF
PRAIRIE TO PINES  WEATHER ROUNDUP
NATIONAL WEATHER SERVICE EASTERN NORTH DAKOTA/GRAND FORKS ND
400 PM CST FRI MAR 06 2015

 **SATELLITE DATA USED TO AUGMENT SKY COVER AT AUTOMATED STATIONS**
 *****  WEATHER ACROSS EASTERN NORTH DAKOTA  *****

CITY           SKY/WX    TMP DP  RH WIND       PRES   REMARKS
GRAND FORKS    PTSUNNY   39  18  42 SW10      29.98F
GRAND FRKS AFB MOSUNNY   39  16  39 W13       29.97F
GRAND FRKS NWS   N/A     37 N/A N/A SW13        N/A
DEVILS LAKE    CLOUDY    34  25  69 SW14      29.95F WCI  24
FARGO          SUNNY     39  18  42 W8        30.03F
WAHPETON ARPT  CLEAR     36  21  55 W9        30.06F
$$

 ***** WEATHER ACROSS CENTRAL AND WESTERN NORTH DAKOTA  *****

CITY           SKY/WX    TMP DP  RH WIND       PRES   REMARKS
BISMARCK       CLOUDY    46  23  40 S6        29.98F
MINOT          CLOUDY    39  25  57 SW14      29.88F
JAMESTOWN      PTSUNNY   36  21  54 SW12      30.00F
MINOT AFB      PTSUNNY   38  29  70 SW14G23   29.87F
GARRISON         N/A     41  27  57 SW9       29.92F
WILLISTON      CLOUDY    48  31  51 W15       29.96S
DICKINSON      PTSUNNY   54  22  28 NW21G30   29.96R
HETTINGER      CLOUDY    56  19  23 NW24G37   30.00S
$$

 *****  OTHER AIRPORT OBSERVATIONS IN OUR AREA  *****

CITY           SKY/WX    TMP DP  RH WIND       PRES   REMARKS
WALHALLA         N/A     34  23  64 SW6       29.92F
GRAFTON AIRPOR NOT AVBL
VALLEY CITY AR MOCLDY    37  23  56 W8        30.00F
CANDO          CLOUDY    32  23  69 SW15      29.93S WCI  22
CAVALIER APRT  FAIR      36  23  60 SW12      29.93F
GWINNER        CLEAR     37  23  56 W12       30.06S
ROLLA          FLURRIES  32  23  69 SW24G35   29.88F WCI  19
 ***** THE ABOVE OBSERVATIONS ARE NON NWS ARE NOT QUALITY
       CONTROLLED AND MAY MIS-REPORT RAIN FOR SNOW...
$$

  *****  WEATHER ACROSS NORTHERN MINNESOTA  *****

CITY           SKY/WX    TMP DP  RH WIND       PRES   REMARKS
FLAG ISLAND    CLOUDY    34   9  35 W13       29.89F WCI  25
WARROAD        SUNNY     30  19  64 SW13      29.94F WCI  20
ROSEAU         MOSUNNY   30  21  69 SW12      29.95F WCI  21
HALLOCK        NOT AVBL
THF RVR FALLS  SUNNY     32  18  55 SW9       29.98F WCI  24
BAUDETTE       PTSUNNY   31  12  45 W9        29.92F WCI  23
WASKISH        SUNNY     30  18  59 SW13      29.97F WCI  20
CROOKSTON      SUNNY     36  19  51 SW9       30.00F
STEPHEN NDAWN    N/A     34  23  64 SW10        N/A
GREENBUSH NDAW   N/A     32  19  59 SW12        N/A  WCI  23
$$
  *****  WEATHER ACROSS CENTRAL AND WEST MINNESOTA  *****

CITY           SKY/WX    TMP DP  RH WIND       PRES   REMARKS
FOSSTON        SUNNY     34  18  51 SW7       30.01F
BEMIDJI        SUNNY     30  14  51 W12       29.99F WCI  20
PARK RAPIDS    MOSUNNY   32  13  45 NW13      30.00R WCI  22
ELBOW LAKE     FAIR      33  21  62 W12       30.06S WCI  24
WADENA         MOSUNNY   30  16  55 W9        30.02S WCI  22
DETROIT LAKES  MOSUNNY   32  21  64 W7        30.03S
MOORHEAD       SUNNY     39  16  38 W6        30.04F
FERGUS FALLS   MOSUNNY   36  18  48 NW12      30.08S
MORRIS MN      SUNNY     34  21  60 W12       30.08S
STAPLES        MOSUNNY   30  12  47 NW13      30.02S WCI  20
$$
  *****  WEATHER ELSEWHERE ACROSS MINNESOTA  *****

CITY           SKY/WX    TMP DP  RH WIND       PRES   REMARKS
DULUTH         SUNNY     32  10  40 W16G24    29.93S WCI  21
INTRNTL FALLS  SUNNY     31  10  41 W8        29.93S WCI  23
ELY            SUNNY     30   7  37 W9G24     29.90R WCI  22
CLOQUET        SUNNY     32   7  34 W15G23    29.95S WCI  22
WHEATON        SUNNY     34  19  55 W5        30.09F
BRAINERD       SUNNY     33  11  39 NW12      30.01R WCI  24
HIBBING        SUNNY     31  10  41 W10       29.94R WCI  22
ALEXANDRIA     MOSUNNY   30  17  58 NW12      30.06R WCI  20
SAINT CLOUD    MOSUNNY   33  16  49 W13       30.04R WCI  24
MINNEAPOLIS    MOSUNNY   37  17  44 NW9       30.04R
$$

  *****  WEATHER ACROSS SOUTH DAKOTA  *****

CITY           SKY/WX    TMP DP  RH WIND       PRES   REMARKS
SIOUX FALLS    PTSUNNY   45  23  42 NW9       30.10S
BROOKINGS      NOT AVBL
WATERTOWN      SUNNY     35  21  56 W7        30.07F
HURON          SUNNY     43  22  43 CALM      30.11S
SISSETON         N/A     37  21  52 NW9       30.06F
ABERDEEN       PTSUNNY   41  21  44 W8        30.08F
MITCHELL       MOSUNNY   49  20  31 VRB5      30.10F
PIERRE         CLOUDY    53  24  32 E9        30.04F
MOBRIDGE       MOSUNNY   50  22  33 SW5       29.99F
RAPID CITY     MOSUNNY   57  20  23 N20       30.07F
$$

  *****  SOME WEATHER IN NEARBY STATES *****

CITY           SKY/WX    TMP DP  RH WIND       PRES   REMARKS
GLASGOW MT     SUNNY     56  24  29 NW21G30   30.01R
GREAT FALLS MT MOSUNNY   59  17  19 W17G28    30.15S
CHEYENNE WY    SUNNY     48  20  32 NW16      30.23S
SCOTTSBLUFF NE SUNNY     57  17  21 W20G30    30.19F
OMAHA NE       MOSUNNY   62  17  17 W20G29    30.11S
DES MOINES IA  PTSUNNY   55  23  28 W10       30.12F
DAVENPORT IA   SUNNY     36  21  54 S12       30.17F
CHICAGO IL     MOSUNNY   26  14  60 SW20G30   30.20F WCI  12
EAU CLAIRE WI  SUNNY     32  16  51 SW12      30.02S WCI  23
LA CROSSE WI   SUNNY     35  20  54 SW10      30.07R
$$

  *****  SOME NATIONAL WEATHER *****

CITY           SKY/WX    TMP DP  RH WIND       PRES   REMARKS
LA GUARDIA NY  PTCLDY    26   5  40 CALM      30.42F
RALEIGH NC     MOSUNNY   36  11  35 NE6       30.41F
ATLANTA GA     PTSUNNY   50  29  44 NW10      30.36F
NEW ORLEANS LA PTSUNNY   52  19  27 N8        30.41F
OKLAHOMA CITY  SUNNY     57  24  28 SW16      30.37F
ALBUQUERQUE NM SUNNY     57  10  15 VRB3      30.29F
SALT LAKE CITY MOSUNNY   54  20  26 N7        30.39F
LOS ANGELES CA SUNNY     76  21  12 W10       30.03F
BOISE ID       SUNNY     58  23  26 NW3       30.37F
SEATTLE WA     PTSUNNY   58  39  49 VRB5      30.39F
$$

*** WEATHER ACROSS MANITOBA...SASKATCHEWAN AND ONTARIO ***
                ***ONTARIO***

CITY           SKY/WX    TMP DP  RH WIND       PRES   REMARKS
GERALDTON      PTSUNNY   23   7  50 W10G22    29.75R WCI  12
THUNDER BAY    MOSUNNY   30   9  40 NW15G25   29.85R WCI  19
SIOUX LOOKOUT  PTSUNNY   28   9  43 W9        29.82S WCI  20
TORONTO        PTSUNNY   21   5  49 SW18G26   30.25F WCI   6
BIG TROUT LK   SUNNY     10  -4  52 N7        29.78R WCI   0
PICKLE LAKE    PTSUNNY   23   3  42 W16G25    29.72R WCI  10
DRYDEN         SUNNY     30  10  43 W15G21    29.83F WCI  19
KENORA         PTSUNNY   30  12  47 SW10G17   29.87F WCI  21
$$
                *** MANITOBA***

CITY           SKY/WX    TMP DP  RH WIND       PRES   REMARKS
BRANDON        LGT SNOW  30  27  86 W21       29.84F WCI  17
DAUPHIN        NOT AVBL
ISLAND LAKE    FLURRIES  14   5  67 W9        29.79S WCI   2
PILOT MOUND      N/A     30  23  74 SW20        N/A  WCI  18
THE PAS        MOSUNNY   30  19  64 N3        29.74R
THOMPSON       MOSUNNY   12  -4  48 N10       29.84R WCI  -1
WINNIPEG       PTSUNNY   32  21  64 S18G25    29.87F WCI  20
LYNN LAKE      CLOUDY    14   5  67 N13       29.85R WCI   0
CHURCHILL      CRYSTALS  -8 -15  71 NW10      29.90R WCI -26
GILLAM         MOSUNNY    3  -9  55 W8        29.86R WCI -10
$$
                ***SASKATCHEWAN***

CITY           SKY/WX    TMP DP  RH WIND       PRES   REMARKS
ESTEVAN        MOSUNNY   39  32  75 W17G23    29.87S
KINDERSLEY     MOSUNNY   37  30  75 NW14G22   30.02R
LLOYDMINSTER   MOSUNNY   37  30  75 NW16      30.00R
PRINCE ALBERT  MOSUNNY   43  25  49 N14G22    29.85R
REGINA         PTSUNNY   37  32  81 NW26G33   29.87R
YORKTON        MOSUNNY   34  30  86 W12       29.78S
N. BATTLEFORD  SUNNY     39  32  75 NW15G21   29.98R
LA RONGE       NOT AVBL
SASKATOON      MOSUNNY   37  32  81 NW16G23   29.93R
SWIFT CURRENT  PTSUNNY   39  30  70 NW21G30   29.99R
$$
NOTE: THESE ARE AUTOMATED STATIONS WITH LIMITED QUALITY CONTROL
      "FAIR" INDICATES FEW OR NO CLOUDS BELOW 12,000 FEET WITH NO
      SIGNIFICANT WEATHER AND/OR OBSTRUCTIONS TO VISIBILITY.
      SKY/WX - SKY CONDITION AND SIGNIFICANT WEATHER.
      TMP - AIR TEMPERATURE.    DP   - DEWPOINT TEMPERATURE.
      RH  - RELATIVE HUMIDITY.  PRES - PRESSURE.
      HX  - HEAT INDEX.         WCI  - WIND CHILL INDEX.
$


USA.gov is the U.S. government's official web portal to all federal, state and local government web resources and services.